Wichita Falls, TX

6:08 AM CDT on August 18, 2017 (GMT -0500)
Wichita Falls

Weather History for KCWC - March, 2013

Change the Weather History Date:

Friday, March 15, 2013

  Actual Average (KSPS) Record (KSPS)
Temperature  
Mean Temperature 68 °F -  
Max Temperature 86 °F 62 °F 87 °F (1961)
Min Temperature 49 °F 40 °F 13 °F (1947)
Cooling Degree Days 2    
Growing Degree Days 18 (Base 50)    
Moisture  
Dew Point 40 °F    
Average Humidity 41    
Maximum Humidity 71    
Minimum Humidity 16    
Precipitation  
Precipitation 0.00 in - - ()
Sea Level Pressure  
Sea Level Pressure 29.97 in    
Wind  
Wind Speed 11 mph (South)    
Max Wind Speed 23 mph    
Max Gust Speed 32 mph    
Visibility 10 miles    
Events      
Averages and records for this station are not official NWS values.
T = Trace of Precipitation, MM = Missing Value Source: NWS Daily Summary

Daily Weather History Graph

Daily Weather History Graph

Search for Another Location

Airport or City:

Trip Planner

Search our weather history database for the weather conditions in past years. The results will help you decide how hot, cold, wet, or windy it might be!

Date:

Astronomy

Mar. 15, 2013 Rise Set
Actual Time 7:44 AM CDT 7:41 PM CDT
Civil Twilight 7:19 AM CDT 8:06 PM CDT
Nautical Twilight 6:50 AM CDT 8:35 PM CDT
Astronomical Twilight 6:21 AM CDT 9:05 PM CDT
Moon 9:47 AM CDT (3/15) 11:43 PM CDT (3/15)
Length of Visible Light 12h 47m
Length of Day
11h 57m
Waxing Crescent, 15% of the Moon is Illuminated
Mar 15
Waxing Crescent
Mar 19
First Quarter
Mar 27
Full
Apr 2
Last Quarter
Apr 10
New

Hourly Weather History & Observations

Time (CDT) Temp. Dew Point Humidity Pressure Visibility Wind Dir Wind Speed Gust Speed Precip Events Conditions
12:15 AM 56.5 °F 40.5 °F 55% 30.13 in 10.0 mi SSE 9.2 mph - N/A   Clear
12:35 AM 56.7 °F 40.6 °F 55% 30.12 in 10.0 mi SSE 10.4 mph - N/A   Clear
12:55 AM 56.3 °F 41.0 °F 57% 30.12 in 10.0 mi South 10.4 mph - N/A   Clear
1:15 AM 55.8 °F 41.2 °F 58% 30.12 in 10.0 mi SSE 9.2 mph - N/A   Clear
1:35 AM 54.0 °F 41.2 °F 62% 30.12 in 10.0 mi SSE 6.9 mph - N/A   Clear
2:15 AM 53.1 °F 41.4 °F 64% 30.11 in 10.0 mi SSE 5.8 mph - N/A   Clear
2:35 AM 52.2 °F 41.4 °F 67% 30.10 in 10.0 mi SSE 8.1 mph - N/A   Clear
2:55 AM 53.2 °F 42.1 °F 66% 30.10 in 10.0 mi South 8.1 mph - N/A   Clear
3:15 AM 53.2 °F 42.1 °F 66% 30.09 in 10.0 mi South 8.1 mph - N/A   Clear
3:35 AM 52.2 °F 41.9 °F 68% 30.09 in 10.0 mi South 8.1 mph - N/A   Clear
3:55 AM 51.4 °F 41.5 °F 69% 30.08 in 10.0 mi South 6.9 mph - N/A   Clear
4:15 AM 53.6 °F 41.9 °F 65% 30.09 in 10.0 mi South 5.8 mph - N/A   Clear
4:35 AM 50.4 °F 41.4 °F 71% 30.08 in 10.0 mi SSE 8.1 mph - N/A   Clear
4:55 AM 50.9 °F 41.5 °F 70% 30.07 in 10.0 mi South 6.9 mph - N/A   Clear
5:15 AM 53.6 °F 41.0 °F 62% 30.07 in 10.0 mi South 8.1 mph - N/A   Clear
5:35 AM 51.4 °F 41.2 °F 68% 30.06 in 10.0 mi South 8.1 mph - N/A   Clear
5:55 AM 51.1 °F 41.0 °F 68% 30.06 in 10.0 mi South 8.1 mph - N/A   Clear
6:15 AM 53.8 °F 40.5 °F 61% 30.07 in 10.0 mi South 6.9 mph - N/A   Clear
6:35 AM 53.4 °F 40.3 °F 61% 30.07 in 10.0 mi South 8.1 mph - N/A   Clear
6:55 AM 50.9 °F 40.1 °F 67% 30.08 in 10.0 mi South 5.8 mph - N/A   Clear
7:15 AM 52.0 °F 40.1 °F 64% 30.08 in 10.0 mi South 8.1 mph - N/A   Clear
7:35 AM 49.8 °F 40.1 °F 69% 30.07 in 10.0 mi South 6.9 mph - N/A   Clear
7:55 AM 49.1 °F 40.1 °F 71% 30.07 in 10.0 mi South 9.2 mph - N/A   Clear
8:15 AM 52.2 °F 40.1 °F 64% 30.07 in 10.0 mi South 8.1 mph - N/A   Clear
8:35 AM 53.8 °F 40.1 °F 60% 30.07 in 10.0 mi South 8.1 mph - N/A   Clear
8:55 AM 56.3 °F 41.0 °F 57% 30.07 in 10.0 mi South 8.1 mph - N/A   Clear
9:15 AM 60.6 °F 40.8 °F 48% 30.07 in 10.0 mi South 10.4 mph - N/A   Clear
9:35 AM 62.6 °F 40.1 °F 44% 30.07 in 10.0 mi SSW 10.4 mph - N/A   Clear
10:55 AM 68.4 °F 37.9 °F 33% 30.06 in 10.0 mi SSW 15.0 mph 19.6 mph N/A   Clear
11:15 AM 69.8 °F 37.6 °F 31% 30.05 in 10.0 mi SW 12.7 mph 20.7 mph N/A   Clear
11:35 AM 70.9 °F 37.6 °F 30% 30.05 in 10.0 mi SW 12.7 mph 21.9 mph N/A   Clear
11:55 AM 72.7 °F 38.1 °F 28% 30.04 in 10.0 mi SSW 13.8 mph 20.7 mph N/A   Clear
12:15 PM 73.8 °F 38.5 °F 28% 30.04 in 10.0 mi SSW 16.1 mph 21.9 mph N/A   Clear
12:35 PM 75.2 °F 39.4 °F 27% 30.02 in 10.0 mi SSW 16.1 mph 23.0 mph N/A   Clear
12:55 PM 75.7 °F 39.7 °F 27% 30.02 in 10.0 mi SSW 20.7 mph 32.2 mph N/A   Clear
1:15 PM 77.4 °F 39.4 °F 26% 30.00 in 10.0 mi SW 12.7 mph 23.0 mph N/A   Clear
1:35 PM 78.1 °F 39.9 °F 25% 29.99 in 10.0 mi SSW 12.7 mph 23.0 mph N/A   Clear
1:55 PM 79.7 °F 40.5 °F 25% 29.98 in 10.0 mi SSW 13.8 mph 21.9 mph N/A   Clear
2:15 PM 81.3 °F 40.5 °F 23% 29.97 in 10.0 mi SSW 15.0 mph 21.9 mph N/A   Clear
2:35 PM 82.6 °F 41.9 °F 24% 29.95 in 10.0 mi South 15.0 mph 18.4 mph N/A   Clear
2:55 PM 82.8 °F 42.4 °F 24% 29.93 in 10.0 mi South 16.1 mph 23.0 mph N/A   Clear
3:15 PM 83.7 °F 42.1 °F 23% 29.92 in 10.0 mi SSW 11.5 mph 19.6 mph N/A   Clear
3:35 PM 84.7 °F 41.5 °F 22% 29.91 in 10.0 mi South 17.3 mph 25.3 mph N/A   Clear
3:55 PM 85.6 °F 39.6 °F 20% 29.90 in 10.0 mi SSW 16.1 mph 24.2 mph N/A   Clear
4:15 PM 86.0 °F 37.9 °F 18% 29.89 in 10.0 mi South 23.0 mph 28.8 mph N/A   Clear
4:35 PM 86.5 °F 36.5 °F 17% 29.87 in 10.0 mi SW 18.4 mph 31.1 mph N/A   Clear
4:55 PM 86.4 °F 36.1 °F 17% 29.87 in 10.0 mi South 19.6 mph 27.6 mph N/A   Clear
5:15 PM 86.7 °F 34.7 °F 16% 29.86 in 10.0 mi South 20.7 mph 27.6 mph N/A   Clear
5:35 PM 86.2 °F 34.9 °F 16% 29.85 in 10.0 mi SSW 16.1 mph 28.8 mph N/A   Clear
5:55 PM 85.8 °F 36.9 °F 18% 29.85 in 10.0 mi South 16.1 mph 23.0 mph N/A   Clear
6:15 PM 84.7 °F 37.4 °F 19% 29.83 in 10.0 mi South 17.3 mph 23.0 mph N/A   Clear
6:35 PM 84.7 °F 37.4 °F 19% 29.83 in 10.0 mi South 12.7 mph 23.0 mph N/A   Clear
6:55 PM 82.9 °F 37.6 °F 20% 29.83 in 10.0 mi South 16.1 mph 20.7 mph N/A   Clear
7:15 PM 80.6 °F 38.3 °F 22% 29.83 in 10.0 mi South 11.5 mph - N/A   Clear
7:35 PM 78.3 °F 38.5 °F 24% 29.83 in 10.0 mi South 10.4 mph - N/A   Clear
7:55 PM 76.3 °F 39.0 °F 26% 29.82 in 10.0 mi SSE 10.4 mph - N/A   Clear
8:15 PM 75.2 °F 39.2 °F 27% 29.82 in 10.0 mi SSE 13.8 mph - N/A   Clear
8:35 PM 74.7 °F 38.8 °F 27% 29.82 in 10.0 mi SSE 12.7 mph - N/A   Clear
8:55 PM 73.9 °F 38.8 °F 28% 29.82 in 10.0 mi SSE 13.8 mph - N/A   Clear
9:15 PM 73.0 °F 38.7 °F 29% 29.82 in 10.0 mi SSE 13.8 mph - N/A   Clear
9:35 PM 72.1 °F 39.2 °F 30% 29.82 in 10.0 mi SSE 13.8 mph - N/A   Clear
9:55 PM 71.8 °F 39.2 °F 31% 29.81 in 10.0 mi SSE 16.1 mph - N/A   Clear
10:15 PM 72.0 °F 39.6 °F 31% 29.81 in 10.0 mi SSE 16.1 mph 23.0 mph N/A   Clear
10:35 PM 71.8 °F 40.3 °F 32% 29.81 in 10.0 mi South 17.3 mph - N/A   Clear
10:55 PM 71.8 °F 40.6 °F 32% 29.81 in 10.0 mi South 18.4 mph 23.0 mph N/A   Clear
11:15 PM 71.6 °F 41.0 °F 33% 29.81 in 10.0 mi South 17.3 mph 23.0 mph N/A   Clear
11:35 PM 71.6 °F 41.4 °F 33% 29.81 in 10.0 mi South 19.6 mph 25.3 mph N/A   Clear
11:55 PM 71.2 °F 41.9 °F 35% 29.80 in 10.0 mi South 17.3 mph - N/A   Clear